Content
SEND FEEDBACK

Daily
Averages
Monthly
Summary
United States of America

EL PASO, TEXAS


Home > North America > United States > Texas
Elevation: 1194 meters     Latitude: 31 48N     Longitude: 106 24W

WEATHER
 
SELECT A DAY
Number of Records: 171,910;   Date Range: 1/1/95 - 7/26/14
 
SHARE

PRINT THIS DATA

[ ← Previous Day ]
WEATHER ALMANAC - 25 OCTOBER, 2013
[ Next Day → ]
[ °F ]   °C
Weather ElementAverageHighLow
Temperature19.7 °C26.1 °C (3:51 pm)13.9 °C (7:51 am)
Dewpoint4.3 °C8.3 °C (7:51 am)1.7 °C (1:51 am)
Humidity38.2 %69 % (7:51 am)23 % (1:51 pm)
Barometer1014.9 hPa1017.6 hPa (8:51 am)1012.5 hPa (4:51 pm)
Wind Speed10.9 km/h22.2 km/h (5:51 am)
Wind Gust29.6 km/h (11:51 am)
Weather ElementAverage
Visibility16.1 km
Wind DirectionESE (113 °)

Weather ElementTotal
Precipitation---
Cooling Degree Days1.7 (Base 18.3)
Growing Degree Days10 (Base 10)
Averaged from 23 records on 25 October, 2013
WEATHER CONDITIONS BREAKOUT
WIND DIRECTION BREAKOUT
WEATHER BY HOUR - 25 OCTOBER, 2013
[ °F ]   °C
Local TimeTemperatureDewpointHumidityBarometerVisibilityWind DirectionWind SpeedGust SpeedPrecipitationEventsConditions
1:51 AM18.9 °C1.7 °C32 %1013.9 hPa16.1 kmCalmMostly Cloudy
2:51 AM17.2 °C2.2 °C37 %1013.9 hPa16.1 kmCalmMostly Cloudy
3:51 AM16.7 °C2.2 °C38 %1014.2 hPa16.1 kmNorth (10°)9.3 km/hMostly Cloudy
4:51 AM15.6 °C2.8 °C42 %1014.6 hPa16.1 kmNNE (20°)13 km/hMostly Cloudy
5:51 AM15 °C3.3 °C46 %1015.9 hPa16.1 kmNorth (360°)22.2 km/hMostly Cloudy
6:51 AM14.4 °C5.6 °C56 %1016.6 hPa16.1 kmNorth (360°)14.8 km/hMostly Cloudy
7:51 AM13.9 °C8.3 °C69 %1016.9 hPa16.1 kmNorth (350°)18.5 km/hScattered Clouds
8:51 AM16.7 °C6.1 °C50 %1017.6 hPa16.1 kmNNE (30°)7.4 km/hMostly Cloudy
9:51 AM19.4 °C5.6 °C40 %1017.6 hPa16.1 kmEast (100°)14.8 km/hScattered Clouds
10:51 AM21.1 °C4.4 °C33 %1016.9 hPa16.1 kmESE (120°)11.1 km/h27.8 km/hScattered Clouds
11:51 AM22.2 °C4.4 °C31 %1016.3 hPa16.1 kmESE (120°)16.7 km/h29.6 km/hScattered Clouds
12:51 PM23.9 °C2.8 °C25 %1014.9 hPa16.1 kmSE (130°)18.5 km/h29.6 km/hScattered Clouds
1:51 PM25 °C2.2 °C23 %1013.9 hPa16.1 kmESE (120°)11.1 km/hPartly Cloudy
2:51 PM25.6 °C2.8 °C23 %1013.2 hPa16.1 kmESE (110°)7.4 km/hScattered Clouds
3:51 PM26.1 °C3.3 °C23 %1012.9 hPa16.1 kmSE (130°)14.8 km/hScattered Clouds
4:51 PM25.6 °C2.8 °C23 %1012.5 hPa16.1 kmSSE (160°)11.1 km/hPartly Cloudy
5:51 PM25 °C2.8 °C24 %1012.5 hPa16.1 kmSSE (150°)13 km/hPartly Cloudy
6:51 PM22.2 °C5.6 °C34 %1013.9 hPa16.1 kmESE (110°)20.4 km/hPartly Cloudy
7:51 PM20 °C6.1 °C40 %1014.6 hPa16.1 kmESE (110°)16.7 km/hPartly Cloudy
8:51 PM18.9 °C6.1 °C43 %1014.9 hPa16.1 kmNNE (30°)5.6 km/hPartly Cloudy
9:51 PM17.2 °C6.1 °C48 %1015.2 hPa16.1 kmCalmPartly Cloudy
10:51 PM16.7 °C5.6 °C48 %1015.6 hPa16.1 kmCalmPartly Cloudy
11:51 PM16.1 °C5.6 °C50 %1015.2 hPa16.1 kmEast (80°)5.6 km/hClear
Hourly data recorded from KELP, located 0 kilometers away from El Paso, Texas







STORIES FROM OUR PARTNERS